This is the latest recevied weather packets stored in our database for station/object K0VSC-1. If no packets are shown the sender has not sent any weather packets the latest 10 day(s).
| Time | Temp. | Humidity | Pressure | Rain* | Wind** | Luminosity | Snow |
|---|---|---|---|---|---|---|---|
| 1777138410 | 7.22° C | 80% | 1017.4 hPa | 0 mm | - | 67 W/m² | - |
| 1777138110 | 7.22° C | 80% | 1017.4 hPa | 0 mm | - | 74 W/m² | - |
| 1777137810 | 7.22° C | 79% | 1017.6 hPa | 0 mm | - | 72 W/m² | - |
| 1777137510 | 7.78° C | 78% | 1017.5 hPa | 0 mm | - | 90 W/m² | - |
| 1777137211 | 7.78° C | 78% | 1017.4 hPa | 0 mm | - | 83 W/m² | - |
| 1777136910 | 7.78° C | 77% | 1017.4 hPa | 0 mm | - | 109 W/m² | - |
| 1777136611 | 7.78° C | 77% | 1017.4 hPa | 0 mm | - | 113 W/m² | - |
| 1777136311 | 8.33° C | 74% | 1017.4 hPa | 0 mm | - | 144 W/m² | - |
| 1777136010 | 8.33° C | 74% | 1017.4 hPa | 0 mm | - | 97 W/m² | - |
| 1777135711 | 8.33° C | 73% | 1017.3 hPa | 0 mm | - | 107 W/m² | - |
| 1777135411 | 8.33° C | 72% | 1017.3 hPa | 0 mm | - | 81 W/m² | - |
| 1777135111 | 8.89° C | 71% | 1017.3 hPa | 0 mm | - | 93 W/m² | - |
| 1777134810 | 8.89° C | 69% | 1017.3 hPa | 0 mm | - | 88 W/m² | - |
| 1777134511 | 8.89° C | 68% | 1017.2 hPa | 0 mm | - | 90 W/m² | - |
| 1777134210 | 8.89° C | 68% | 1017.4 hPa | 0 mm | - | 83 W/m² | - |
| 1777133911 | 8.89° C | 67% | 1017.3 hPa | 0 mm | - | 95 W/m² | - |
| 1777133611 | 8.89° C | 67% | 1017.2 hPa | 0 mm | - | 104 W/m² | - |
| 1777133311 | 8.89° C | 67% | 1017.1 hPa | 0 mm | - | 86 W/m² | - |
| 1777133011 | 8.89° C | 66% | 1017.1 hPa | 0 mm | - | 91 W/m² | - |
| 1777132711 | 8.89° C | 66% | 1017 hPa | 0 mm | - | 90 W/m² | - |
| 1777132411 | 9.44° C | 65% | 1016.9 hPa | 0 mm | - | 104 W/m² | - |
| 1777132155 | 9.44° C | 65% | 1017 hPa | 0 mm | - | 125 W/m² | - |
| 1777132111 | 9.44° C | 65% | 1017 hPa | 0 mm | - | 125 W/m² | - |
| 1777131842 | 9.44° C | 64% | 1016.9 hPa | 0 mm | - | 137 W/m² | - |
| 1777131811 | 9.44° C | 64% | 1016.9 hPa | 0 mm | - | 137 W/m² | - |
* Rain latest hour (hover to see other rain measurements)
** Current wind speed in m/s (hover to see current wind gust speed)